Istanbul, Turkey

12:54 AM +03 on January 18, 2017 (GMT +0300)
Ataturk

Weather History for LTBA - January, 2014

Change the Weather History Date:

Friday, January 3, 2014

  Actual Average Record
Temperature  
Mean Temperature 48 °F -  
Max Temperature 52 °F 46 °F 62 °F (2006)
Min Temperature 45 °F 37 °F 28 °F (2008)
Degree Days  
Heating Degree Days 16    
Moisture  
Dew Point 43 °F    
Average Humidity 81    
Maximum Humidity 93    
Minimum Humidity 66    
Precipitation  
Precipitation 0.00 in - - ()
Sea Level Pressure  
Sea Level Pressure 30.19 in    
Wind  
Wind Speed 6 mph ()    
Max Wind Speed 9 mph    
Max Gust Speed -    
Visibility 5.2 miles    
Events Rain    
Averages and records for this station are not official NWS values.
T = Trace of Precipitation, MM = Missing Value Source: Averaged Metar Reports

Daily Weather History Graph

Daily Weather History Graph

Search for Another Location

Airport or City:

Trip Planner

Search our weather history database for the weather conditions in past years. The results will help you decide how hot, cold, wet, or windy it might be!

Date:

Astronomy

Jan. 03, 2014 Rise Set
Actual Time 7:29 AM EET 4:48 PM EET
Civil Twilight 6:58 AM EET 5:19 PM EET
Nautical Twilight 6:24 AM EET 5:54 PM EET
Astronomical Twilight 5:51 AM EET 6:27 PM EET
Moon 8:40 AM EET (1/3) 7:35 PM EET (1/3)
Length of Visible Light 10h 20m
Length of Day
9h 19m
Waxing Crescent, 6% of the Moon is Illuminated
Jan 3
Waxing Crescent
Jan 8
First Quarter
Jan 16
Full
Jan 24
Last Quarter
Jan 30
New

Hourly Weather History & Observations

Time (EET) Temp. Windchill Dew Point Humidity Pressure Visibility Wind Dir Wind Speed Gust Speed Precip Events Conditions
12:20 AM 48.2 °F - 41.0 °F 76% 30.15 in 6.2 mi North 6.9 mph - N/A   Scattered Clouds
12:50 AM 48.2 °F - 41.0 °F 76% 30.15 in 6.2 mi Variable 5.8 mph - N/A   Scattered Clouds
1:20 AM 48.2 °F - 41.0 °F 76% 30.15 in 6.2 mi Variable 5.8 mph - N/A   Scattered Clouds
1:50 AM 48.2 °F - 41.0 °F 76% 30.18 in 6.2 mi NNE 4.6 mph - N/A   Scattered Clouds
2:00 AM 47 °F - 41 °F 74% 30.19 in 6 mi NNE 4.6 mph - -   Partly Cloudy
2:20 AM 48.2 °F - 41.0 °F 76% 30.18 in 6.2 mi Variable 5.8 mph - N/A   Scattered Clouds
2:50 AM 46.4 °F 44.3 °F 42.8 °F 87% 30.18 in 6.2 mi NNE 4.6 mph - N/A Rain Light Rain
3:20 AM 48.2 °F - 42.8 °F 82% 30.15 in 6.2 mi NNE 3.5 mph - N/A Rain Light Rain
3:50 AM 46.4 °F 44.3 °F 42.8 °F 87% 30.15 in 6.2 mi NNE 4.6 mph - N/A Rain Light Rain
4:20 AM 46.4 °F 44.3 °F 42.8 °F 87% 30.18 in 6.2 mi NNE 4.6 mph - N/A   Mostly Cloudy
4:42 AM 46.4 °F 44.3 °F 42.8 °F 87% 30.18 in 5.0 mi NE 4.6 mph - N/A Rain Light Rain
4:50 AM 48.2 °F - 42.8 °F 82% 30.18 in 4.3 mi NE 4.6 mph - N/A Rain Light Rain
5:00 AM 47 °F - 43 °F 79% 30.19 in 4 mi NE 4.6 mph - - Rain Light Rain
5:20 AM 46.4 °F 43.5 °F 42.8 °F 87% 30.15 in 6.2 mi North 5.8 mph - N/A   Mostly Cloudy
5:50 AM 46.4 °F 43.5 °F 42.8 °F 87% 30.15 in 6.2 mi NNE 5.8 mph - N/A   Mostly Cloudy
6:20 AM 46.4 °F 43.5 °F 42.8 °F 87% 30.18 in 6.2 mi NNE 5.8 mph - N/A   Scattered Clouds
6:50 AM 46.4 °F 43.5 °F 42.8 °F 87% 30.18 in 6.2 mi North 5.8 mph - N/A   Scattered Clouds
7:20 AM 46.4 °F 42.4 °F 42.8 °F 87% 30.18 in 6.2 mi NNW 8.1 mph - N/A   Scattered Clouds
7:50 AM 46.4 °F 42.9 °F 42.8 °F 87% 30.18 in 3.7 mi North 6.9 mph - N/A   Mostly Cloudy
8:00 AM 46 °F - 43 °F 86% 30.21 in 4 mi North 6.9 mph - -   Mist
8:20 AM 50.0 °F - 42.8 °F 76% 30.18 in 3.7 mi Variable 5.8 mph - N/A   Mostly Cloudy
8:50 AM 48.2 °F - 42.8 °F 82% 30.21 in 3.7 mi Variable 5.8 mph - N/A   Mostly Cloudy
9:20 AM 50.0 °F - 42.8 °F 76% 30.21 in 3.7 mi NNE 6.9 mph - N/A   Mostly Cloudy
9:50 AM 48.2 °F - 42.8 °F 82% 30.21 in 3.7 mi NNE 6.9 mph - N/A   Mostly Cloudy
10:20 AM 48.2 °F - 42.8 °F 82% 30.21 in 3.7 mi NNE 5.8 mph - N/A   Mostly Cloudy
10:50 AM 50.0 °F - 42.8 °F 76% 30.21 in 3.7 mi NNE 4.6 mph - N/A   Mostly Cloudy
11:00 AM 49 °F - 43 °F 72% 30.23 in 4 mi NNE 4.6 mph - -   Mist
11:20 AM 50.0 °F - 42.8 °F 76% 30.21 in 3.7 mi NNE 5.8 mph - N/A   Mostly Cloudy
11:50 AM 50.0 °F - 42.8 °F 76% 30.21 in 3.7 mi NNE 4.6 mph - N/A   Mostly Cloudy
12:20 PM 51.8 °F - 42.8 °F 71% 30.18 in 3.7 mi NE 4.6 mph - N/A   Mostly Cloudy
12:31 PM 51.8 °F - 42.8 °F 71% 30.18 in 3.7 mi Variable 3.5 mph - N/A Rain Light Rain
12:50 PM 50.0 °F - 42.8 °F 76% 30.18 in 3.7 mi North 4.6 mph - N/A Rain Light Rain
1:20 PM 51.8 °F - 44.6 °F 76% 30.18 in 3.7 mi Variable 1.2 mph - N/A Rain Light Rain
1:50 PM 51.8 °F - 44.6 °F 76% 30.18 in 3.7 mi North 4.6 mph - N/A Rain Light Rain
2:00 PM 51 °F - 43 °F 66% 30.19 in 4 mi North 4.6 mph - - Rain Light Rain
2:20 PM 50.0 °F - 44.6 °F 82% 30.18 in 3.7 mi NNW 6.9 mph - N/A Rain Light Rain
2:50 PM 50.0 °F - 44.6 °F 82% 30.18 in 3.7 mi NNW 8.1 mph - N/A   Mostly Cloudy
3:20 PM 50.0 °F - 44.6 °F 82% 30.18 in 5.0 mi NNW 9.2 mph - N/A   Mostly Cloudy
3:50 PM 50.0 °F - 44.6 °F 82% 30.18 in 5.0 mi NNW 9.2 mph - N/A   Mostly Cloudy
4:20 PM 50.0 °F - 44.6 °F 82% 30.18 in 5.0 mi North 8.1 mph - N/A   Mostly Cloudy
4:50 PM 48.2 °F - 44.6 °F 87% 30.18 in 5.0 mi North 6.9 mph - N/A   Mostly Cloudy
5:00 PM 49 °F - 44 °F 76% 30.21 in 5 mi North 6.9 mph - -   Mist
5:20 PM 48.2 °F - 44.6 °F 87% 30.18 in 5.0 mi NNW 9.2 mph - N/A   Mostly Cloudy
5:50 PM 48.2 °F - 42.8 °F 82% 30.21 in 6.2 mi North 9.2 mph - N/A   Mostly Cloudy
6:20 PM 48.2 °F - 42.8 °F 82% 30.21 in 6.2 mi NNE 9.2 mph - N/A   Mostly Cloudy
6:50 PM 48.2 °F - 44.6 °F 87% 30.21 in 6.2 mi Variable 6.9 mph - N/A   Mostly Cloudy
7:20 PM 48.2 °F - 44.6 °F 87% 30.21 in 6.2 mi NNE 8.1 mph - N/A   Mostly Cloudy
7:50 PM 50.0 °F - 42.8 °F 76% 30.21 in 6.2 mi Variable 4.6 mph - N/A   Mostly Cloudy
8:00 PM 49 °F - 44 °F 76% 30.23 in 6 mi NNE 4.6 mph - -   Mostly Cloudy
8:20 PM 50.0 °F - 44.6 °F 82% 30.21 in 6.2 mi Variable 6.9 mph - N/A   Scattered Clouds
8:50 PM 50.0 °F - 42.8 °F 76% 30.21 in 6.2 mi NNE 5.8 mph - N/A   Scattered Clouds
9:20 PM 50.0 °F - 42.8 °F 76% 30.21 in 6.2 mi Variable 4.6 mph - N/A   Scattered Clouds
9:50 PM 46.4 °F 41.9 °F 42.8 °F 87% 30.21 in 6.2 mi NNW 9.2 mph - N/A   Scattered Clouds
10:20 PM 46.4 °F 41.9 °F 42.8 °F 87% 30.21 in 6.2 mi NNW 9.2 mph - N/A   Scattered Clouds
10:50 PM 46.4 °F 41.9 °F 42.8 °F 87% 30.21 in 6.2 mi NNW 9.2 mph - N/A   Scattered Clouds
11:00 PM 46 °F - 43 °F 87% 30.24 in 6 mi NNW 9.2 mph - -   Partly Cloudy
11:20 PM 46.4 °F 41.9 °F 44.6 °F 93% 30.21 in 6.2 mi North 9.2 mph - N/A   Scattered Clouds
11:50 PM 46.4 °F 41.9 °F 44.6 °F 93% 30.21 in 6.2 mi NNW 9.2 mph - N/A   Scattered Clouds